Tracking 35331 objects as of 15-Sep-2026
HD Live streaming from Space Station
objects crossing your sky now

STARLINK-36056

Track STARLINK-36056 now!
10-day predictions
STARLINK-36056 is classified as:


NORAD ID: 67206
Int'l Code: 2025-304Q
Launch date: December 17, 2025
Source: United States (US)
Launch site: AIR FORCE WESTERN TEST RANGE (AFWTR)
Your satellite tracking list
Your tracking list is empty




NASA's NSSDC Master Catalog

Two Line Element Set (TLE):
1 67206U 25304Q   26257.90633671  .00006226  00000-0  52886-3 0  9990
2 67206  70.0016  57.5242 0003545 272.9306  87.1447 14.98348488 42192
Source of the keplerian elements: AFSPC